Three Rivers, MI

4:09 PM EDT on March 29, 2017 (GMT -0400)
Three Rivers Municipal-Haines

Weather History for KHAI - April, 2013

Change the Weather History Date:

Sunday, April 21, 2013

  Actual Average Record
Temperature  
Mean Temperature 36 °F -  
Max Temperature 50 °F 63 °F 85 °F (1985)
Min Temperature 22 °F 41 °F 22 °F (1953)
Degree Days  
Heating Degree Days 29    
Moisture  
Dew Point 26 °F    
Average Humidity 66    
Maximum Humidity 96    
Minimum Humidity 43    
Precipitation  
Precipitation 0.00 in - - ()
Sea Level Pressure  
Sea Level Pressure 30.49 in    
Wind  
Wind Speed 4 mph (SE)    
Max Wind Speed 14 mph    
Max Gust Speed 18 mph    
Visibility 10 miles    
Events      
Averages and records for this station are not official NWS values.
T = Trace of Precipitation, MM = Missing Value Source: NWS Daily Summary

Daily Weather History Graph

Daily Weather History Graph

Search for Another Location

Airport or City:

Trip Planner

Search our weather history database for the weather conditions in past years. The results will help you decide how hot, cold, wet, or windy it might be!

Date:

Astronomy

Apr. 21, 2013 Rise Set
Actual Time 6:52 AM EDT 8:30 PM EDT
Civil Twilight 6:22 AM EDT 8:59 PM EDT
Nautical Twilight 5:47 AM EDT 9:35 PM EDT
Astronomical Twilight 5:09 AM EDT 10:14 PM EDT
Moon 4:11 PM EDT (4/21) 4:18 AM EDT (4/21)
Length of Visible Light 14h 37m
Length of Day
13h 38m
Waxing Gibbous, 79% of the Moon is Illuminated
Apr 21
Waxing Gibbous
Apr 25
Full
May 2
Last Quarter
May 9
New
May 18
First Quarter

Hourly Weather History & Observations

Time (EDT) Temp. Windchill Dew Point Humidity Pressure Visibility Wind Dir Wind Speed Gust Speed Precip Events Conditions
12:14 AM 28.0 °F - 21.2 °F 76% 30.44 in 10.0 mi Calm Calm - N/A   Clear
12:35 AM 27.3 °F - 21.6 °F 79% 30.45 in 10.0 mi Calm Calm - N/A   Clear
12:55 AM 25.7 °F - 21.0 °F 82% 30.46 in 10.0 mi Calm Calm - N/A   Clear
1:14 AM 26.6 °F - 23.0 °F 86% 30.46 in 10.0 mi Calm Calm - N/A   Clear
1:35 AM 26.8 °F - 23.0 °F 86% 30.46 in 10.0 mi Calm Calm - N/A   Clear
1:55 AM 25.7 °F - 22.5 °F 88% 30.47 in 10.0 mi Calm Calm - N/A   Clear
2:14 AM 24.8 °F - 21.9 °F 89% 30.46 in 10.0 mi Calm Calm - N/A   Clear
2:35 AM 25.5 °F - 22.8 °F 89% 30.47 in 10.0 mi Calm Calm - N/A   Clear
2:55 AM 25.3 °F - 22.6 °F 89% 30.47 in 10.0 mi Calm Calm - N/A   Clear
3:15 AM 23.7 °F - 21.6 °F 91% 30.47 in 10.0 mi Calm Calm - N/A   Clear
3:35 AM 24.8 °F - 22.8 °F 92% 30.47 in 10.0 mi Calm Calm - N/A   Clear
3:55 AM 24.6 °F - 22.6 °F 92% 30.47 in 10.0 mi Calm Calm - N/A   Clear
4:15 AM 23.5 °F - 22.1 °F 94% 30.48 in 10.0 mi Calm Calm - N/A   Clear
4:35 AM 23.9 °F - 22.1 °F 93% 30.49 in 10.0 mi Calm Calm - N/A   Clear
4:55 AM 23.9 °F - 22.5 °F 94% 30.49 in 10.0 mi Calm Calm - N/A   Clear
5:15 AM 23.0 °F - 21.9 °F 96% 30.50 in 10.0 mi Calm Calm - N/A   Clear
5:35 AM 23.5 °F - 22.1 °F 94% 30.50 in 10.0 mi Calm Calm - N/A   Clear
5:54 AM 22.8 °F - 21.6 °F 95% 30.51 in 10.0 mi Calm Calm - N/A   Clear
6:15 AM 23.5 °F - 22.3 °F 95% 30.52 in 10.0 mi Calm Calm - N/A   Clear
6:34 AM 23.0 °F - 21.7 °F 95% 30.52 in 10.0 mi Calm Calm - N/A   Clear
6:55 AM 23.7 °F - 22.5 °F 95% 30.53 in 10.0 mi Calm Calm - N/A   Clear
7:15 AM 23.0 °F - 21.6 °F 94% 30.54 in 10.0 mi Calm Calm - N/A   Clear
7:34 AM 23.9 °F - 22.8 °F 96% 30.55 in 10.0 mi Calm Calm - N/A   Clear
7:55 AM 27.5 °F 23.6 °F 25.9 °F 94% 30.55 in 10.0 mi ESE 3.5 mph - N/A   Clear
8:15 AM 30.7 °F 24.9 °F 25.0 °F 79% 30.56 in 10.0 mi ESE 5.8 mph - N/A   Clear
8:34 AM 31.5 °F 24.2 °F 24.8 °F 76% 30.56 in 10.0 mi ESE 8.1 mph - N/A   Clear
8:55 AM 32.5 °F 26.2 °F 25.9 °F 76% 30.56 in 10.0 mi SE 6.9 mph - N/A   Clear
9:15 AM 33.8 °F 27.0 °F 25.9 °F 73% 30.57 in 10.0 mi ESE 8.1 mph - N/A   Clear
9:35 AM 35.8 °F 30.1 °F 26.1 °F 68% 30.56 in 10.0 mi SE 6.9 mph - N/A   Clear
9:55 AM 36.9 °F 30.7 °F 23.4 °F 58% 30.57 in 10.0 mi SSE 8.1 mph - N/A   Clear
10:15 AM 37.6 °F 32.3 °F 23.2 °F 56% 30.57 in 10.0 mi SE 6.9 mph - N/A   Clear
10:35 AM 39.0 °F 33.4 °F 23.9 °F 55% 30.57 in 10.0 mi ESE 8.1 mph - N/A   Clear
10:55 AM 39.4 °F 33.2 °F 23.5 °F 53% 30.56 in 10.0 mi ESE 9.2 mph - N/A   Clear
11:15 AM 41.4 °F 36.2 °F 23.4 °F 49% 30.56 in 10.0 mi ESE 8.1 mph - N/A   Clear
11:35 AM 41.9 °F 36.3 °F 23.0 °F 47% 30.56 in 10.0 mi ESE 9.2 mph - N/A   Clear
11:55 AM 42.4 °F 37.0 °F 23.2 °F 47% 30.56 in 10.0 mi SE 9.2 mph - N/A   Clear
12:14 PM 42.8 °F 38.0 °F 22.8 °F 45% 30.56 in 10.0 mi ESE 8.1 mph - N/A   Clear
12:35 PM 43.9 °F 38.8 °F 23.9 °F 45% 30.55 in 10.0 mi ESE 9.2 mph - N/A   Clear
12:55 PM 44.4 °F 39.0 °F 24.4 °F 45% 30.55 in 10.0 mi SE 10.4 mph - N/A   Clear
1:14 PM 45.5 °F 40.8 °F 25.5 °F 46% 30.55 in 10.0 mi SSE 9.2 mph 16.1 mph N/A   Clear
1:35 PM 46.9 °F - 27.3 °F 46% 30.54 in 10.0 mi SSE 11.5 mph 17.3 mph N/A   Clear
1:55 PM 46.6 °F - 27.1 °F 47% 30.52 in 10.0 mi South 9.2 mph 16.1 mph N/A   Clear
2:15 PM 47.3 °F - 27.7 °F 47% 30.52 in 10.0 mi SSE 12.7 mph 16.1 mph N/A   Clear
2:35 PM 47.5 °F - 27.3 °F 46% 30.51 in 10.0 mi SSE 9.2 mph - N/A   Clear
2:55 PM 48.0 °F - 27.7 °F 45% 30.50 in 10.0 mi SE 13.8 mph 17.3 mph N/A   Clear
3:15 PM 49.3 °F - 28.8 °F 45% 30.49 in 10.0 mi South 11.5 mph - N/A   Clear
3:35 PM 48.9 °F - 28.8 °F 46% 30.49 in 10.0 mi SE 11.5 mph 18.4 mph N/A   Clear
3:55 PM 49.1 °F - 28.2 °F 44% 30.47 in 10.0 mi SE 11.5 mph 16.1 mph N/A   Clear
4:15 PM 49.3 °F - 27.3 °F 43% 30.46 in 10.0 mi SSE 9.2 mph - N/A   Clear
4:35 PM 49.3 °F - 28.6 °F 45% 30.46 in 10.0 mi SE 10.4 mph - N/A   Clear
4:55 PM 50.0 °F - 29.1 °F 45% 30.45 in 10.0 mi SSE 10.4 mph 16.1 mph N/A   Clear
5:15 PM 50.2 °F - 29.3 °F 45% 30.44 in 10.0 mi ESE 11.5 mph - N/A   Clear
5:35 PM 50.0 °F - 30.0 °F 46% 30.43 in 10.0 mi SSE 6.9 mph - N/A   Clear
5:54 PM 50.0 °F - 29.5 °F 45% 30.43 in 10.0 mi ESE 11.5 mph 16.1 mph N/A   Clear
6:15 PM 50.2 °F - 29.8 °F 46% 30.43 in 10.0 mi ESE 9.2 mph 16.1 mph N/A   Clear
6:34 PM 50.0 °F - 29.8 °F 46% 30.42 in 10.0 mi SE 12.7 mph - N/A   Clear
6:55 PM 50.0 °F - 30.7 °F 48% 30.42 in 10.0 mi SSE 6.9 mph - N/A   Clear
7:15 PM 49.3 °F - 30.0 °F 48% 30.42 in 10.0 mi SE 10.4 mph 16.1 mph N/A   Clear
7:34 PM 48.9 °F - 29.5 °F 47% 30.42 in 10.0 mi SE 9.2 mph - N/A   Clear
7:55 PM 48.2 °F - 29.3 °F 48% 30.42 in 10.0 mi ESE 9.2 mph 17.3 mph N/A   Clear
8:15 PM 47.5 °F - 30.0 °F 51% 30.42 in 10.0 mi SE 11.5 mph - N/A   Clear
8:35 PM 46.8 °F - 30.6 °F 53% 30.42 in 10.0 mi SE 6.9 mph - N/A   Clear
8:55 PM 46.4 °F 42.9 °F 29.8 °F 53% 30.42 in 10.0 mi SSE 6.9 mph - N/A   Clear
9:15 PM 45.5 °F 42.5 °F 30.2 °F 55% 30.42 in 10.0 mi SSE 5.8 mph - N/A   Clear
9:35 PM 45.1 °F 42.0 °F 30.6 °F 57% 30.42 in 10.0 mi SE 5.8 mph - N/A   Clear
9:55 PM 44.2 °F 38.8 °F 31.1 °F 60% 30.42 in 10.0 mi ESE 10.4 mph - N/A   Clear
10:15 PM 43.2 °F 37.4 °F 33.4 °F 69% 30.42 in 10.0 mi SE 10.4 mph - N/A   Clear
10:35 PM 42.6 °F 36.3 °F 33.8 °F 71% 30.42 in 10.0 mi SE 11.5 mph 16.1 mph N/A   Clear
10:55 PM 41.5 °F 35.9 °F 33.6 °F 73% 30.42 in 10.0 mi ESE 9.2 mph - N/A   Clear
11:14 PM 41.2 °F 36.0 °F 33.4 °F 74% 30.42 in 10.0 mi SE 8.1 mph - N/A   Clear
11:35 PM 41.0 °F 34.7 °F 32.9 °F 73% 30.42 in 10.0 mi SE 10.4 mph - N/A   Clear
11:55 PM 40.3 °F 35.5 °F 32.4 °F 73% 30.42 in 10.0 mi SE 6.9 mph - N/A   Clear